Time,TemperatureF,DewpointF,PressureIn,WindDirection,WindDirectionDegrees,WindSpeedMPH,WindSpeedGustMPH,Humidity,HourlyPrecipIn,Conditions,Clouds,dailyrainin,SoftwareType,DateUTC
2013-03-20 00:03:00,39.6,30.6,-100.00,North,-999,-999.0,-999.0,70,-99.99,,,-99.99,,2013-03-20 07:03:00,
2013-03-20 00:08:00,39.9,31.3,-100.00,North,-999,-999.0,-999.0,71,-99.99,,,-99.99,,2013-03-20 07:08:00,
2013-03-20 00:18:00,39.7,31.1,-100.00,North,-999,-999.0,-999.0,71,-99.99,,,-99.99,,2013-03-20 07:18:00,
2013-03-20 00:20:00,39.8,31.2,-100.00,North,-999,-999.0,-999.0,71,-99.99,,,-99.99,,2013-03-20 07:20:00,
2013-03-20 00:23:00,39.4,31.1,-100.00,North,-999,-999.0,-999.0,72,-99.99,,,-99.99,,2013-03-20 07:23:00,
2013-03-20 00:28:00,39.2,31.6,-100.00,North,-999,-999.0,-999.0,74,-99.99,,,-99.99,,2013-03-20 07:28:00,
2013-03-20 00:33:00,38.8,31.8,-100.00,North,-999,-999.0,-999.0,76,-99.99,,,-99.99,,2013-03-20 07:33:00,
2013-03-20 00:38:00,38.5,31.6,-100.00,North,-999,-999.0,-999.0,76,-99.99,,,-99.99,,2013-03-20 07:38:00,
2013-03-20 00:48:00,38.3,33.0,-100.00,North,-999,-999.0,-999.0,81,-99.99,,,-99.99,,2013-03-20 07:48:00,
2013-03-20 00:50:00,38.3,31.4,-100.00,North,-999,-999.0,-999.0,76,-99.99,,,-99.99,,2013-03-20 07:50:00,
2013-03-20 00:53:00,37.9,33.8,-100.00,North,-999,-999.0,-999.0,85,-99.99,,,-99.99,,2013-03-20 07:53:00,
2013-03-20 00:58:00,37.9,34.6,-100.00,North,-999,-999.0,-999.0,87,-99.99,,,-99.99,,2013-03-20 07:58:00,
2013-03-20 01:03:00,37.8,35.1,-100.00,North,-999,-999.0,-999.0,90,-99.99,,,-99.99,,2013-03-20 08:03:00,
2013-03-20 01:08:00,37.9,35.8,-100.00,North,-999,-999.0,-999.0,92,-99.99,,,-99.99,,2013-03-20 08:08:00,
2013-03-20 01:18:00,37.6,36.0,-100.00,North,-999,-999.0,-999.0,94,-99.99,,,-99.99,,2013-03-20 08:18:00,
2013-03-20 01:20:00,37.6,35.7,-100.00,North,-999,-999.0,-999.0,93,-99.99,,,-99.99,,2013-03-20 08:20:00,
2013-03-20 01:23:00,37.4,36.1,-100.00,North,-999,-999.0,-999.0,95,-99.99,,,-99.99,,2013-03-20 08:23:00,
2013-03-20 01:28:00,37.4,36.4,-100.00,North,-999,-999.0,-999.0,96,-99.99,,,-99.99,,2013-03-20 08:28:00,
2013-03-20 01:33:00,37.6,36.7,-100.00,North,-999,-999.0,-999.0,96,-99.99,,,-99.99,,2013-03-20 08:33:00,
2013-03-20 01:38:00,37.6,36.8,-100.00,North,-999,-999.0,-999.0,97,-99.99,,,-99.99,,2013-03-20 08:38:00,
2013-03-20 01:48:00,37.8,37.2,-100.00,North,-999,-999.0,-999.0,98,-99.99,,,-99.99,,2013-03-20 08:48:00,
2013-03-20 01:50:00,37.8,37.2,-100.00,North,-999,-999.0,-999.0,98,-99.99,,,-99.99,,2013-03-20 08:50:00,
2013-03-20 01:53:00,37.9,37.4,-100.00,North,-999,-999.0,-999.0,98,-99.99,,,-99.99,,2013-03-20 08:53:00,
2013-03-20 01:58:00,37.9,37.4,-100.00,North,-999,-999.0,-999.0,98,-99.99,,,-99.99,,2013-03-20 08:58:00,
2013-03-20 02:18:00,38.1,37.6,-100.00,North,-999,-999.0,-999.0,98,-99.99,,,-99.99,,2013-03-20 09:18:00,
2013-03-20 02:20:00,38.1,37.6,-100.00,North,-999,-999.0,-999.0,98,-99.99,,,-99.99,,2013-03-20 09:20:00,
2013-03-20 02:23:00,38.1,37.6,-100.00,North,-999,-999.0,-999.0,98,-99.99,,,-99.99,,2013-03-20 09:23:00,
2013-03-20 02:28:00,38.1,37.6,-100.00,North,-999,-999.0,-999.0,98,-99.99,,,-99.99,,2013-03-20 09:28:00,
2013-03-20 02:33:00,38.1,37.6,-100.00,North,-999,-999.0,-999.0,98,-99.99,,,-99.99,,2013-03-20 09:33:00,
2013-03-20 02:38:00,38.1,37.6,-100.00,North,-999,-999.0,-999.0,98,-99.99,,,-99.99,,2013-03-20 09:38:00,
2013-03-20 02:48:00,38.1,37.6,-100.00,North,-999,-999.0,-999.0,98,-99.99,,,-99.99,,2013-03-20 09:48:00,
2013-03-20 02:50:00,38.1,37.6,-100.00,North,-999,-999.0,-999.0,98,-99.99,,,-99.99,,2013-03-20 09:50:00,
2013-03-20 02:53:00,38.1,37.6,-100.00,North,-999,-999.0,-999.0,98,-99.99,,,-99.99,,2013-03-20 09:53:00,
2013-03-20 02:58:00,38.1,37.6,-100.00,North,-999,-999.0,-999.0,98,-99.99,,,-99.99,,2013-03-20 09:58:00,
2013-03-20 03:18:00,37.9,37.4,-100.00,North,-999,-999.0,-999.0,98,-99.99,,,-99.99,,2013-03-20 10:18:00,
2013-03-20 03:23:00,37.9,37.4,-100.00,North,-999,-999.0,-999.0,98,-99.99,,,-99.99,,2013-03-20 10:23:00,
2013-03-20 03:28:00,38.1,37.6,-100.00,North,-999,-999.0,-999.0,98,-99.99,,,-99.99,,2013-03-20 10:28:00,
2013-03-20 03:35:00,38.1,37.6,-100.00,North,-999,-999.0,-999.0,98,-99.99,,,-99.99,,2013-03-20 10:35:00,
2013-03-20 03:38:00,38.1,37.6,-100.00,North,-999,-999.0,-999.0,98,-99.99,,,-99.99,,2013-03-20 10:38:00,
2013-03-20 03:48:00,37.9,37.4,-100.00,North,-999,-999.0,-999.0,98,-99.99,,,-99.99,,2013-03-20 10:48:00,
2013-03-20 03:50:00,38.1,37.6,-100.00,North,-999,-999.0,-999.0,98,-99.99,,,-99.99,,2013-03-20 10:50:00,
2013-03-20 03:53:00,37.9,37.4,-100.00,North,-999,-999.0,-999.0,98,-99.99,,,-99.99,,2013-03-20 10:53:00,
2013-03-20 03:58:00,37.9,37.4,-100.00,North,-999,-999.0,-999.0,98,-99.99,,,-99.99,,2013-03-20 10:58:00,
2013-03-20 04:18:00,37.9,37.4,-100.00,North,-999,-999.0,-999.0,98,-99.99,,,-99.99,,2013-03-20 11:18:00,
2013-03-20 04:20:00,38.1,37.6,-100.00,North,-999,-999.0,-999.0,98,-99.99,,,-99.99,,2013-03-20 11:20:00,
2013-03-20 04:23:00,38.1,37.6,-100.00,North,-999,-999.0,-999.0,98,-99.99,,,-99.99,,2013-03-20 11:23:00,
2013-03-20 04:28:00,38.1,37.6,-100.00,North,-999,-999.0,-999.0,98,-99.99,,,-99.99,,2013-03-20 11:28:00,
2013-03-20 04:33:00,37.9,37.4,-100.00,North,-999,-999.0,-999.0,98,-99.99,,,-99.99,,2013-03-20 11:33:00,
2013-03-20 04:38:00,37.9,37.4,-100.00,North,-999,-999.0,-999.0,98,-99.99,,,-99.99,,2013-03-20 11:38:00,
2013-03-20 04:48:00,37.9,37.4,-100.00,North,-999,-999.0,-999.0,98,-99.99,,,-99.99,,2013-03-20 11:48:00,
2013-03-20 04:50:00,37.9,37.4,-100.00,North,-999,-999.0,-999.0,98,-99.99,,,-99.99,,2013-03-20 11:50:00,
2013-03-20 04:53:00,38.1,37.6,-100.00,North,-999,-999.0,-999.0,98,-99.99,,,-99.99,,2013-03-20 11:53:00,
2013-03-20 04:58:00,38.1,37.6,-100.00,North,-999,-999.0,-999.0,98,-99.99,,,-99.99,,2013-03-20 11:58:00,
2013-03-20 05:03:00,38.1,37.6,-100.00,North,-999,-999.0,-999.0,98,-99.99,,,-99.99,,2013-03-20 12:03:00,
2013-03-20 05:08:00,37.9,37.4,-100.00,North,-999,-999.0,-999.0,98,-99.99,,,-99.99,,2013-03-20 12:08:00,
2013-03-20 05:18:00,37.9,37.4,-100.00,North,-999,-999.0,-999.0,98,-99.99,,,-99.99,,2013-03-20 12:18:00,
2013-03-20 05:20:00,37.9,37.4,-100.00,North,-999,-999.0,-999.0,98,-99.99,,,-99.99,,2013-03-20 12:20:00,
2013-03-20 05:23:00,37.9,37.4,-100.00,North,-999,-999.0,-999.0,98,-99.99,,,-99.99,,2013-03-20 12:23:00,
2013-03-20 05:28:00,38.1,37.6,-100.00,North,-999,-999.0,-999.0,98,-99.99,,,-99.99,,2013-03-20 12:28:00,
2013-03-20 05:33:00,38.1,37.6,-100.00,North,-999,-999.0,-999.0,98,-99.99,,,-99.99,,2013-03-20 12:33:00,
2013-03-20 05:38:00,37.9,37.4,-100.00,North,-999,-999.0,-999.0,98,-99.99,,,-99.99,,2013-03-20 12:38:00,
2013-03-20 05:48:00,37.9,37.4,-100.00,North,-999,-999.0,-999.0,98,-99.99,,,-99.99,,2013-03-20 12:48:00,
2013-03-20 05:50:00,38.1,37.6,-100.00,North,-999,-999.0,-999.0,98,-99.99,,,-99.99,,2013-03-20 12:50:00,
2013-03-20 05:53:00,37.9,37.4,-100.00,North,-999,-999.0,-999.0,98,-99.99,,,-99.99,,2013-03-20 12:53:00,
2013-03-20 05:58:00,38.1,37.6,-100.00,North,-999,-999.0,-999.0,98,-99.99,,,-99.99,,2013-03-20 12:58:00,
2013-03-20 06:03:00,37.9,37.4,-100.00,North,-999,-999.0,-999.0,98,-99.99,,,-99.99,,2013-03-20 13:03:00,
2013-03-20 06:08:00,37.9,37.4,-100.00,North,-999,-999.0,-999.0,98,-99.99,,,-99.99,,2013-03-20 13:08:00,
2013-03-20 06:18:00,37.8,37.2,-100.00,North,-999,-999.0,-999.0,98,-99.99,,,-99.99,,2013-03-20 13:18:00,
2013-03-20 06:20:00,37.9,37.4,-100.00,North,-999,-999.0,-999.0,98,-99.99,,,-99.99,,2013-03-20 13:20:00,
2013-03-20 06:23:00,37.9,37.4,-100.00,North,-999,-999.0,-999.0,98,-99.99,,,-99.99,,2013-03-20 13:23:00,
2013-03-20 06:28:00,37.9,37.4,-100.00,North,-999,-999.0,-999.0,98,-99.99,,,-99.99,,2013-03-20 13:28:00,
2013-03-20 06:33:00,37.8,37.2,-100.00,North,-999,-999.0,-999.0,98,-99.99,,,-99.99,,2013-03-20 13:33:00,
2013-03-20 06:38:00,37.6,37.1,-100.00,North,-999,-999.0,-999.0,98,-99.99,,,-99.99,,2013-03-20 13:38:00,
2013-03-20 06:48:00,37.6,37.1,-100.00,North,-999,-999.0,-999.0,98,-99.99,,,-99.99,,2013-03-20 13:48:00,
2013-03-20 06:50:00,37.6,37.1,-100.00,North,-999,-999.0,-999.0,98,-99.99,,,-99.99,,2013-03-20 13:50:00,
2013-03-20 06:53:00,37.6,37.1,-100.00,North,-999,-999.0,-999.0,98,-99.99,,,-99.99,,2013-03-20 13:53:00,
2013-03-20 06:58:00,37.4,36.9,-100.00,North,-999,-999.0,-999.0,98,-99.99,,,-99.99,,2013-03-20 13:58:00,
2013-03-20 07:03:00,37.4,36.9,-100.00,North,-999,-999.0,-999.0,98,-99.99,,,-99.99,,2013-03-20 14:03:00,
2013-03-20 07:08:00,37.6,37.1,-100.00,North,-999,-999.0,-999.0,98,-99.99,,,-99.99,,2013-03-20 14:08:00,
2013-03-20 07:18:00,37.6,37.1,-100.00,North,-999,-999.0,-999.0,98,-99.99,,,-99.99,,2013-03-20 14:18:00,
2013-03-20 07:20:00,37.4,36.9,-100.00,North,-999,-999.0,-999.0,98,-99.99,,,-99.99,,2013-03-20 14:20:00,
2013-03-20 07:23:00,37.6,37.1,-100.00,North,-999,-999.0,-999.0,98,-99.99,,,-99.99,,2013-03-20 14:23:00,
2013-03-20 07:28:00,37.6,37.1,-100.00,North,-999,-999.0,-999.0,98,-99.99,,,-99.99,,2013-03-20 14:28:00,
2013-03-20 07:33:00,37.6,37.1,-100.00,North,-999,-999.0,-999.0,98,-99.99,,,-99.99,,2013-03-20 14:33:00,
2013-03-20 07:38:00,37.8,37.2,-100.00,North,-999,-999.0,-999.0,98,-99.99,,,-99.99,,2013-03-20 14:38:00,
2013-03-20 07:48:00,37.8,37.2,-100.00,North,-999,-999.0,-999.0,98,-99.99,,,-99.99,,2013-03-20 14:48:00,
2013-03-20 07:50:00,37.8,37.2,-100.00,North,-999,-999.0,-999.0,98,-99.99,,,-99.99,,2013-03-20 14:50:00,
2013-03-20 07:53:00,37.8,37.2,-100.00,North,-999,-999.0,-999.0,98,-99.99,,,-99.99,,2013-03-20 14:53:00,
2013-03-20 07:58:00,37.8,37.2,-100.00,North,-999,-999.0,-999.0,98,-99.99,,,-99.99,,2013-03-20 14:58:00,
2013-03-20 08:03:00,37.8,37.3,-100.00,North,-999,-999.0,-999.0,98,-99.99,,,-99.99,,2013-03-20 15:03:00,
2013-03-20 08:08:00,37.9,37.4,-100.00,North,-999,-999.0,-999.0,98,-99.99,,,-99.99,,2013-03-20 15:08:00,
2013-03-20 08:18:00,38.1,37.6,-100.00,North,-999,-999.0,-999.0,98,-99.99,,,-99.99,,2013-03-20 15:18:00,
2013-03-20 08:20:00,37.9,37.4,-100.00,North,-999,-999.0,-999.0,98,-99.99,,,-99.99,,2013-03-20 15:20:00,
2013-03-20 08:23:00,38.1,37.6,-100.00,North,-999,-999.0,-999.0,98,-99.99,,,-99.99,,2013-03-20 15:23:00,
2013-03-20 08:28:00,38.3,37.8,-100.00,North,-999,-999.0,-999.0,98,-99.99,,,-99.99,,2013-03-20 15:28:00,
2013-03-20 08:33:00,38.4,37.9,-100.00,North,-999,-999.0,-999.0,98,-99.99,,,-99.99,,2013-03-20 15:33:00,
2013-03-20 08:38:00,38.5,38.0,-100.00,North,-999,-999.0,-999.0,98,-99.99,,,-99.99,,2013-03-20 15:38:00,
2013-03-20 08:48:00,38.7,38.1,-100.00,North,-999,-999.0,-999.0,98,-99.99,,,-99.99,,2013-03-20 15:48:00,
2013-03-20 08:50:00,38.7,38.1,-100.00,North,-999,-999.0,-999.0,98,-99.99,,,-99.99,,2013-03-20 15:50:00,
2013-03-20 08:53:00,38.7,38.1,-100.00,North,-999,-999.0,-999.0,98,-99.99,,,-99.99,,2013-03-20 15:53:00,
2013-03-20 08:58:00,38.8,38.3,-100.00,North,-999,-999.0,-999.0,98,-99.99,,,-99.99,,2013-03-20 15:58:00,
2013-03-20 09:03:00,38.8,38.3,-100.00,North,-999,-999.0,-999.0,98,-99.99,,,-99.99,,2013-03-20 16:03:00,
2013-03-20 09:08:00,38.8,38.3,-100.00,North,-999,-999.0,-999.0,98,-99.99,,,-99.99,,2013-03-20 16:08:00,
2013-03-20 09:18:00,39.0,38.5,-100.00,North,-999,-999.0,-999.0,98,-99.99,,,-99.99,,2013-03-20 16:18:00,
2013-03-20 09:20:00,38.9,38.4,-100.00,North,-999,-999.0,-999.0,98,-99.99,,,-99.99,,2013-03-20 16:20:00,
2013-03-20 09:23:00,39.2,38.7,-100.00,North,-999,-999.0,-999.0,98,-99.99,,,-99.99,,2013-03-20 16:23:00,
2013-03-20 09:28:00,39.2,38.7,-100.00,North,-999,-999.0,-999.0,98,-99.99,,,-99.99,,2013-03-20 16:28:00,
2013-03-20 09:33:00,39.4,38.9,-100.00,North,-999,-999.0,-999.0,98,-99.99,,,-99.99,,2013-03-20 16:33:00,
2013-03-20 09:38:00,39.4,38.9,-100.00,North,-999,-999.0,-999.0,98,-99.99,,,-99.99,,2013-03-20 16:38:00,
2013-03-20 09:51:00,39.6,39.0,-100.00,North,-999,-999.0,-999.0,98,-99.99,,,-99.99,,2013-03-20 16:51:00,
2013-03-20 09:53:00,39.7,39.1,-100.00,North,-999,-999.0,-999.0,98,-99.99,,,-99.99,,2013-03-20 16:53:00,
2013-03-20 09:58:00,39.7,39.2,-100.00,North,-999,-999.0,-999.0,98,-99.99,,,-99.99,,2013-03-20 16:58:00,
2013-03-20 10:20:00,39.5,39.0,-100.00,North,-999,-999.0,-999.0,98,-99.99,,,-99.99,,2013-03-20 17:20:00,
2013-03-20 10:23:00,39.2,38.7,-100.00,North,-999,-999.0,-999.0,98,-99.99,,,-99.99,,2013-03-20 17:23:00,
2013-03-20 10:28:00,39.0,38.5,-100.00,North,-999,-999.0,-999.0,98,-99.99,,,-99.99,,2013-03-20 17:28:00,
2013-03-20 10:33:00,39.0,38.5,-100.00,North,-999,-999.0,-999.0,98,-99.99,,,-99.99,,2013-03-20 17:33:00,
2013-03-20 10:38:00,39.0,38.5,-100.00,North,-999,-999.0,-999.0,98,-99.99,,,-99.99,,2013-03-20 17:38:00,
2013-03-20 10:50:00,39.1,38.6,-100.00,North,-999,-999.0,-999.0,98,-99.99,,,-99.99,,2013-03-20 17:50:00,
2013-03-20 10:53:00,39.0,38.5,-100.00,North,-999,-999.0,-999.0,98,-99.99,,,-99.99,,2013-03-20 17:53:00,
2013-03-20 10:58:00,39.0,38.5,-100.00,North,-999,-999.0,-999.0,98,-99.99,,,-99.99,,2013-03-20 17:58:00,
2013-03-20 11:03:00,38.8,38.3,-100.00,North,-999,-999.0,-999.0,98,-99.99,,,-99.99,,2013-03-20 18:03:00,
2013-03-20 11:08:00,38.5,38.0,-100.00,North,-999,-999.0,-999.0,98,-99.99,,,-99.99,,2013-03-20 18:08:00,
2013-03-20 11:18:00,37.9,37.4,-100.00,North,-999,-999.0,-999.0,98,-99.99,,,-99.99,,2013-03-20 18:18:00,
2013-03-20 11:20:00,38.1,37.6,-100.00,North,-999,-999.0,-999.0,98,-99.99,,,-99.99,,2013-03-20 18:20:00,
2013-03-20 11:23:00,38.1,37.6,-100.00,North,-999,-999.0,-999.0,98,-99.99,,,-99.99,,2013-03-20 18:23:00,
2013-03-20 11:28:00,38.1,37.6,-100.00,North,-999,-999.0,-999.0,98,-99.99,,,-99.99,,2013-03-20 18:28:00,
2013-03-20 11:33:00,37.9,37.4,-100.00,North,-999,-999.0,-999.0,98,-99.99,,,-99.99,,2013-03-20 18:33:00,
2013-03-20 11:38:00,38.1,37.6,-100.00,North,-999,-999.0,-999.0,98,-99.99,,,-99.99,,2013-03-20 18:38:00,
2013-03-20 11:48:00,38.7,38.1,-100.00,North,-999,-999.0,-999.0,98,-99.99,,,-99.99,,2013-03-20 18:48:00,
2013-03-20 11:50:00,38.3,37.8,-100.00,North,-999,-999.0,-999.0,98,-99.99,,,-99.99,,2013-03-20 18:50:00,
2013-03-20 11:53:00,39.0,38.5,-100.00,North,-999,-999.0,-999.0,98,-99.99,,,-99.99,,2013-03-20 18:53:00,
2013-03-20 11:58:00,39.2,38.7,-100.00,North,-999,-999.0,-999.0,98,-99.99,,,-99.99,,2013-03-20 18:58:00,
2013-03-20 12:03:00,39.2,38.7,-100.00,North,-999,-999.0,-999.0,98,-99.99,,,-99.99,,2013-03-20 19:03:00,
2013-03-20 12:08:00,39.4,38.9,-100.00,North,-999,-999.0,-999.0,98,-99.99,,,-99.99,,2013-03-20 19:08:00,
2013-03-20 12:18:00,39.6,39.0,-100.00,North,-999,-999.0,-999.0,98,-99.99,,,-99.99,,2013-03-20 19:18:00,
2013-03-20 12:20:00,39.5,39.0,-100.00,North,-999,-999.0,-999.0,98,-99.99,,,-99.99,,2013-03-20 19:20:00,
2013-03-20 12:23:00,39.6,39.0,-100.00,North,-999,-999.0,-999.0,98,-99.99,,,-99.99,,2013-03-20 19:23:00,
2013-03-20 12:28:00,39.4,38.9,-100.00,North,-999,-999.0,-999.0,98,-99.99,,,-99.99,,2013-03-20 19:28:00,
2013-03-20 12:33:00,39.4,38.9,-100.00,North,-999,-999.0,-999.0,98,-99.99,,,-99.99,,2013-03-20 19:33:00,
2013-03-20 12:38:00,39.6,39.0,-100.00,North,-999,-999.0,-999.0,98,-99.99,,,-99.99,,2013-03-20 19:38:00,
2013-03-20 12:43:00,39.7,39.2,-100.00,North,-999,-999.0,-999.0,98,-99.99,,,-99.99,,2013-03-20 19:43:00,
2013-03-20 12:48:00,40.1,39.6,-100.00,North,-999,-999.0,-999.0,98,-99.99,,,-99.99,,2013-03-20 19:48:00,
2013-03-20 12:53:00,40.5,39.9,-100.00,North,-999,-999.0,-999.0,98,-99.99,,,-99.99,,2013-03-20 19:53:00,
2013-03-20 12:58:00,41.0,40.5,-100.00,North,-999,-999.0,-999.0,98,-99.99,,,-99.99,,2013-03-20 19:58:00,
2013-03-20 13:03:00,41.5,41.0,-100.00,North,-999,-999.0,-999.0,98,-99.99,,,-99.99,,2013-03-20 20:03:00,
2013-03-20 13:08:00,41.5,41.0,-100.00,North,-999,-999.0,-999.0,98,-99.99,,,-99.99,,2013-03-20 20:08:00,
2013-03-20 13:13:00,41.6,41.1,-100.00,North,-999,-999.0,-999.0,98,-99.99,,,-99.99,,2013-03-20 20:13:00,
2013-03-20 13:18:00,42.2,41.6,-100.00,North,-999,-999.0,-999.0,98,-99.99,,,-99.99,,2013-03-20 20:18:00,
2013-03-20 13:23:00,42.3,41.7,-100.00,North,-999,-999.0,-999.0,98,-99.99,,,-99.99,,2013-03-20 20:23:00,
2013-03-20 13:28:00,42.2,41.6,-100.00,North,-999,-999.0,-999.0,98,-99.99,,,-99.99,,2013-03-20 20:28:00,
2013-03-20 13:33:00,42.3,41.7,-100.00,North,-999,-999.0,-999.0,98,-99.99,,,-99.99,,2013-03-20 20:33:00,
2013-03-20 13:38:00,42.3,41.7,-100.00,North,-999,-999.0,-999.0,98,-99.99,,,-99.99,,2013-03-20 20:38:00,
2013-03-20 13:48:00,42.1,41.6,-100.00,North,-999,-999.0,-999.0,98,-99.99,,,-99.99,,2013-03-20 20:48:00,
2013-03-20 13:50:00,42.3,41.7,-100.00,North,-999,-999.0,-999.0,98,-99.99,,,-99.99,,2013-03-20 20:50:00,
2013-03-20 13:53:00,42.1,41.6,-100.00,North,-999,-999.0,-999.0,98,-99.99,,,-99.99,,2013-03-20 20:53:00,
2013-03-20 13:58:00,42.1,41.6,-100.00,North,-999,-999.0,-999.0,98,-99.99,,,-99.99,,2013-03-20 20:58:00,
2013-03-20 14:03:00,42.1,41.6,-100.00,North,-999,-999.0,-999.0,98,-99.99,,,-99.99,,2013-03-20 21:03:00,
2013-03-20 14:08:00,42.1,41.6,-100.00,North,-999,-999.0,-999.0,98,-99.99,,,-99.99,,2013-03-20 21:08:00,
2013-03-20 14:18:00,42.1,41.6,-100.00,North,-999,-999.0,-999.0,98,-99.99,,,-99.99,,2013-03-20 21:18:00,
2013-03-20 14:20:00,42.1,41.6,-100.00,North,-999,-999.0,-999.0,98,-99.99,,,-99.99,,2013-03-20 21:20:00,
2013-03-20 14:23:00,42.1,41.6,-100.00,North,-999,-999.0,-999.0,98,-99.99,,,-99.99,,2013-03-20 21:23:00,
2013-03-20 14:28:00,42.1,41.6,-100.00,North,-999,-999.0,-999.0,98,-99.99,,,-99.99,,2013-03-20 21:28:00,
2013-03-20 14:33:00,42.4,41.9,-100.00,North,-999,-999.0,-999.0,98,-99.99,,,-99.99,,2013-03-20 21:33:00,
2013-03-20 14:38:00,43.0,42.5,-100.00,North,-999,-999.0,-999.0,98,-99.99,,,-99.99,,2013-03-20 21:38:00,
2013-03-20 14:48:00,43.2,42.6,-100.00,North,-999,-999.0,-999.0,98,-99.99,,,-99.99,,2013-03-20 21:48:00,
2013-03-20 14:50:00,43.0,42.5,-100.00,North,-999,-999.0,-999.0,98,-99.99,,,-99.99,,2013-03-20 21:50:00,
2013-03-20 14:53:00,43.3,42.8,-100.00,North,-999,-999.0,-999.0,98,-99.99,,,-99.99,,2013-03-20 21:53:00,
2013-03-20 14:58:00,43.3,42.8,-100.00,North,-999,-999.0,-999.0,98,-99.99,,,-99.99,,2013-03-20 21:58:00,
2013-03-20 15:03:00,43.3,42.8,-100.00,North,-999,-999.0,-999.0,98,-99.99,,,-99.99,,2013-03-20 22:03:00,
2013-03-20 15:08:00,43.1,42.5,-100.00,North,-999,-999.0,-999.0,98,-99.99,,,-99.99,,2013-03-20 22:08:00,
2013-03-20 15:18:00,43.0,42.5,-100.00,North,-999,-999.0,-999.0,98,-99.99,,,-99.99,,2013-03-20 22:18:00,
2013-03-20 15:20:00,43.0,42.5,-100.00,North,-999,-999.0,-999.0,98,-99.99,,,-99.99,,2013-03-20 22:20:00,
2013-03-20 15:23:00,43.0,42.5,-100.00,North,-999,-999.0,-999.0,98,-99.99,,,-99.99,,2013-03-20 22:23:00,
2013-03-20 15:28:00,43.2,42.7,-100.00,North,-999,-999.0,-999.0,98,-99.99,,,-99.99,,2013-03-20 22:28:00,
2013-03-20 15:33:00,43.5,43.0,-100.00,North,-999,-999.0,-999.0,98,-99.99,,,-99.99,,2013-03-20 22:33:00,
2013-03-20 15:38:00,43.5,43.0,-100.00,North,-999,-999.0,-999.0,98,-99.99,,,-99.99,,2013-03-20 22:38:00,
2013-03-20 15:48:00,43.9,43.4,-100.00,North,-999,-999.0,-999.0,98,-99.99,,,-99.99,,2013-03-20 22:48:00,
2013-03-20 15:50:00,43.7,43.2,-100.00,North,-999,-999.0,-999.0,98,-99.99,,,-99.99,,2013-03-20 22:50:00,
2013-03-20 15:53:00,44.2,43.7,-100.00,North,-999,-999.0,-999.0,98,-99.99,,,-99.99,,2013-03-20 22:53:00,
2013-03-20 15:58:00,44.4,43.9,-100.00,North,-999,-999.0,-999.0,98,-99.99,,,-99.99,,2013-03-20 22:58:00,
2013-03-20 16:18:00,43.9,43.4,-100.00,North,-999,-999.0,-999.0,98,-99.99,,,-99.99,,2013-03-20 23:18:00,
2013-03-20 16:20:00,44.1,43.5,-100.00,North,-999,-999.0,-999.0,98,-99.99,,,-99.99,,2013-03-20 23:20:00,
2013-03-20 16:23:00,44.2,43.6,-100.00,North,-999,-999.0,-999.0,98,-99.99,,,-99.99,,2013-03-20 23:23:00,
2013-03-20 16:28:00,44.2,43.7,-100.00,North,-999,-999.0,-999.0,98,-99.99,,,-99.99,,2013-03-20 23:28:00,
2013-03-20 16:33:00,44.2,43.6,-100.00,North,-999,-999.0,-999.0,98,-99.99,,,-99.99,,2013-03-20 23:33:00,
2013-03-20 16:38:00,44.2,43.7,-100.00,North,-999,-999.0,-999.0,98,-99.99,,,-99.99,,2013-03-20 23:38:00,
2013-03-20 16:48:00,44.1,43.5,-100.00,North,-999,-999.0,-999.0,98,-99.99,,,-99.99,,2013-03-20 23:48:00,
2013-03-20 16:50:00,44.1,43.5,-100.00,North,-999,-999.0,-999.0,98,-99.99,,,-99.99,,2013-03-20 23:50:00,
2013-03-20 16:53:00,43.9,43.4,-100.00,North,-999,-999.0,-999.0,98,-99.99,,,-99.99,,2013-03-20 23:53:00,
2013-03-20 16:58:00,43.7,43.2,-100.00,North,-999,-999.0,-999.0,98,-99.99,,,-99.99,,2013-03-20 23:58:00,
2013-03-20 17:03:00,43.3,42.8,-100.00,North,-999,-999.0,-999.0,98,-99.99,,,-99.99,,2013-03-21 00:03:00,
2013-03-20 17:08:00,43.3,42.8,-100.00,North,-999,-999.0,-999.0,98,-99.99,,,-99.99,,2013-03-21 00:08:00,
2013-03-20 17:18:00,43.0,42.5,-100.00,North,-999,-999.0,-999.0,98,-99.99,,,-99.99,,2013-03-21 00:18:00,
2013-03-20 17:20:00,43.3,42.8,-100.00,North,-999,-999.0,-999.0,98,-99.99,,,-99.99,,2013-03-21 00:20:00,
2013-03-20 17:23:00,42.8,42.3,-100.00,North,-999,-999.0,-999.0,98,-99.99,,,-99.99,,2013-03-21 00:23:00,
2013-03-20 17:28:00,42.8,42.3,-100.00,North,-999,-999.0,-999.0,98,-99.99,,,-99.99,,2013-03-21 00:28:00,
2013-03-20 17:33:00,42.6,42.1,-100.00,North,-999,-999.0,-999.0,98,-99.99,,,-99.99,,2013-03-21 00:33:00,
2013-03-20 17:38:00,42.6,42.1,-100.00,North,-999,-999.0,-999.0,98,-99.99,,,-99.99,,2013-03-21 00:38:00,
2013-03-20 17:48:00,42.4,41.9,-100.00,North,-999,-999.0,-999.0,98,-99.99,,,-99.99,,2013-03-21 00:48:00,
2013-03-20 17:50:00,42.4,41.9,-100.00,North,-999,-999.0,-999.0,98,-99.99,,,-99.99,,2013-03-21 00:50:00,
2013-03-20 17:58:00,42.4,41.9,-100.00,North,-999,-999.0,-999.0,98,-99.99,,,-99.99,,2013-03-21 00:58:00,
2013-03-20 18:03:00,42.4,41.9,-100.00,North,-999,-999.0,-999.0,98,-99.99,,,-99.99,,2013-03-21 01:03:00,
2013-03-20 18:08:00,42.4,41.9,-100.00,North,-999,-999.0,-999.0,98,-99.99,,,-99.99,,2013-03-21 01:08:00,
2013-03-20 18:18:00,42.4,41.9,-100.00,North,-999,-999.0,-999.0,98,-99.99,,,-99.99,,2013-03-21 01:18:00,
2013-03-20 18:20:00,42.4,41.9,-100.00,North,-999,-999.0,-999.0,98,-99.99,,,-99.99,,2013-03-21 01:20:00,
2013-03-20 18:23:00,42.3,41.7,-100.00,North,-999,-999.0,-999.0,98,-99.99,,,-99.99,,2013-03-21 01:23:00,
2013-03-20 18:28:00,42.4,41.9,-100.00,North,-999,-999.0,-999.0,98,-99.99,,,-99.99,,2013-03-21 01:28:00,
2013-03-20 18:33:00,42.7,42.2,-100.00,North,-999,-999.0,-999.0,98,-99.99,,,-99.99,,2013-03-21 01:33:00,
2013-03-20 18:38:00,42.6,42.1,-100.00,North,-999,-999.0,-999.0,98,-99.99,,,-99.99,,2013-03-21 01:38:00,
2013-03-20 18:50:00,42.5,42.0,-100.00,North,-999,-999.0,-999.0,98,-99.99,,,-99.99,,2013-03-21 01:50:00,
2013-03-20 18:53:00,41.8,41.3,-100.00,North,-999,-999.0,-999.0,98,-99.99,,,-99.99,,2013-03-21 01:53:00,
2013-03-20 18:58:00,41.5,41.0,-100.00,North,-999,-999.0,-999.0,98,-99.99,,,-99.99,,2013-03-21 01:58:00,
2013-03-20 19:03:00,41.2,40.7,-100.00,North,-999,-999.0,-999.0,98,-99.99,,,-99.99,,2013-03-21 02:03:00,
2013-03-20 19:08:00,41.0,40.5,-100.00,North,-999,-999.0,-999.0,98,-99.99,,,-99.99,,2013-03-21 02:08:00,
2013-03-20 19:18:00,40.5,39.9,-100.00,North,-999,-999.0,-999.0,98,-99.99,,,-99.99,,2013-03-21 02:18:00,
2013-03-20 19:20:00,40.6,40.1,-100.00,North,-999,-999.0,-999.0,98,-99.99,,,-99.99,,2013-03-21 02:20:00,
2013-03-20 19:23:00,40.3,39.8,-100.00,North,-999,-999.0,-999.0,98,-99.99,,,-99.99,,2013-03-21 02:23:00,
2013-03-20 19:28:00,40.0,39.5,-100.00,North,-999,-999.0,-999.0,98,-99.99,,,-99.99,,2013-03-21 02:28:00,
2013-03-20 19:33:00,39.9,39.4,-100.00,North,-999,-999.0,-999.0,98,-99.99,,,-99.99,,2013-03-21 02:33:00,
2013-03-20 19:38:00,39.7,39.2,-100.00,North,-999,-999.0,-999.0,98,-99.99,,,-99.99,,2013-03-21 02:38:00,
2013-03-20 19:48:00,39.6,39.0,-100.00,North,-999,-999.0,-999.0,98,-99.99,,,-99.99,,2013-03-21 02:48:00,
2013-03-20 19:50:00,39.7,39.1,-100.00,North,-999,-999.0,-999.0,98,-99.99,,,-99.99,,2013-03-21 02:50:00,
2013-03-20 19:53:00,39.6,39.0,-100.00,North,-999,-999.0,-999.0,98,-99.99,,,-99.99,,2013-03-21 02:53:00,
2013-03-20 19:58:00,39.6,39.0,-100.00,North,-999,-999.0,-999.0,98,-99.99,,,-99.99,,2013-03-21 02:58:00,
2013-03-20 20:03:00,39.6,39.0,-100.00,North,-999,-999.0,-999.0,98,-99.99,,,-99.99,,2013-03-21 03:03:00,
2013-03-20 20:08:00,39.4,38.9,-100.00,North,-999,-999.0,-999.0,98,-99.99,,,-99.99,,2013-03-21 03:08:00,
2013-03-20 20:18:00,39.4,38.9,-100.00,North,-999,-999.0,-999.0,98,-99.99,,,-99.99,,2013-03-21 03:18:00,
2013-03-20 20:20:00,39.4,38.9,-100.00,North,-999,-999.0,-999.0,98,-99.99,,,-99.99,,2013-03-21 03:20:00,
2013-03-20 20:23:00,39.4,38.9,-100.00,North,-999,-999.0,-999.0,98,-99.99,,,-99.99,,2013-03-21 03:23:00,
2013-03-20 20:28:00,39.4,38.9,-100.00,North,-999,-999.0,-999.0,98,-99.99,,,-99.99,,2013-03-21 03:28:00,
2013-03-20 20:33:00,39.2,38.7,-100.00,North,-999,-999.0,-999.0,98,-99.99,,,-99.99,,2013-03-21 03:33:00,
2013-03-20 20:38:00,39.2,38.7,-100.00,North,-999,-999.0,-999.0,98,-99.99,,,-99.99,,2013-03-21 03:38:00,
2013-03-20 20:48:00,39.0,38.5,-100.00,North,-999,-999.0,-999.0,98,-99.99,,,-99.99,,2013-03-21 03:48:00,
2013-03-20 20:50:00,39.2,38.7,-100.00,North,-999,-999.0,-999.0,98,-99.99,,,-99.99,,2013-03-21 03:50:00,
2013-03-20 20:53:00,39.0,38.5,-100.00,North,-999,-999.0,-999.0,98,-99.99,,,-99.99,,2013-03-21 03:53:00,
2013-03-20 20:58:00,39.0,38.5,-100.00,North,-999,-999.0,-999.0,98,-99.99,,,-99.99,,2013-03-21 03:58:00,
2013-03-20 21:03:00,39.0,38.5,-100.00,North,-999,-999.0,-999.0,98,-99.99,,,-99.99,,2013-03-21 04:03:00,
2013-03-20 21:08:00,39.0,38.5,-100.00,North,-999,-999.0,-999.0,98,-99.99,,,-99.99,,2013-03-21 04:08:00,
2013-03-20 21:18:00,39.2,38.7,-100.00,North,-999,-999.0,-999.0,98,-99.99,,,-99.99,,2013-03-21 04:18:00,
2013-03-20 21:20:00,39.2,38.7,-100.00,North,-999,-999.0,-999.0,98,-99.99,,,-99.99,,2013-03-21 04:20:00,
2013-03-20 21:23:00,39.0,38.5,-100.00,North,-999,-999.0,-999.0,98,-99.99,,,-99.99,,2013-03-21 04:23:00,
2013-03-20 21:28:00,39.0,38.5,-100.00,North,-999,-999.0,-999.0,98,-99.99,,,-99.99,,2013-03-21 04:28:00,
2013-03-20 21:33:00,38.8,38.3,-100.00,North,-999,-999.0,-999.0,98,-99.99,,,-99.99,,2013-03-21 04:33:00,
2013-03-20 21:38:00,38.8,38.3,-100.00,North,-999,-999.0,-999.0,98,-99.99,,,-99.99,,2013-03-21 04:38:00,
2013-03-20 21:48:00,38.7,38.1,-100.00,North,-999,-999.0,-999.0,98,-99.99,,,-99.99,,2013-03-21 04:48:00,
2013-03-20 21:50:00,38.7,38.1,-100.00,North,-999,-999.0,-999.0,98,-99.99,,,-99.99,,2013-03-21 04:50:00,
2013-03-20 21:53:00,38.7,38.1,-100.00,North,-999,-999.0,-999.0,98,-99.99,,,-99.99,,2013-03-21 04:53:00,
2013-03-20 21:58:00,38.7,38.1,-100.00,North,-999,-999.0,-999.0,98,-99.99,,,-99.99,,2013-03-21 04:58:00,
2013-03-20 22:18:00,38.8,38.3,-100.00,North,-999,-999.0,-999.0,98,-99.99,,,-99.99,,2013-03-21 05:18:00,
2013-03-20 22:20:00,38.7,38.1,-100.00,North,-999,-999.0,-999.0,98,-99.99,,,-99.99,,2013-03-21 05:20:00,
2013-03-20 22:23:00,38.9,38.4,-100.00,North,-999,-999.0,-999.0,98,-99.99,,,-99.99,,2013-03-21 05:23:00,
2013-03-20 22:28:00,39.2,38.7,-100.00,North,-999,-999.0,-999.0,98,-99.99,,,-99.99,,2013-03-21 05:28:00,
2013-03-20 22:33:00,39.2,38.7,-100.00,North,-999,-999.0,-999.0,98,-99.99,,,-99.99,,2013-03-21 05:33:00,
2013-03-20 22:38:00,39.4,38.9,-100.00,North,-999,-999.0,-999.0,98,-99.99,,,-99.99,,2013-03-21 05:38:00,
2013-03-20 22:48:00,39.6,39.0,-100.00,North,-999,-999.0,-999.0,98,-99.99,,,-99.99,,2013-03-21 05:48:00,
2013-03-20 22:50:00,39.6,39.0,-100.00,North,-999,-999.0,-999.0,98,-99.99,,,-99.99,,2013-03-21 05:50:00,
2013-03-20 22:53:00,39.6,39.0,-100.00,North,-999,-999.0,-999.0,98,-99.99,,,-99.99,,2013-03-21 05:53:00,
2013-03-20 22:58:00,39.4,38.9,-100.00,North,-999,-999.0,-999.0,98,-99.99,,,-99.99,,2013-03-21 05:58:00,
2013-03-20 23:03:00,39.4,38.9,-100.00,North,-999,-999.0,-999.0,98,-99.99,,,-99.99,,2013-03-21 06:03:00,
2013-03-20 23:08:00,39.4,38.9,-100.00,North,-999,-999.0,-999.0,98,-99.99,,,-99.99,,2013-03-21 06:08:00,
2013-03-20 23:18:00,39.2,38.7,-100.00,North,-999,-999.0,-999.0,98,-99.99,,,-99.99,,2013-03-21 06:18:00,
2013-03-20 23:20:00,39.2,38.7,-100.00,North,-999,-999.0,-999.0,98,-99.99,,,-99.99,,2013-03-21 06:20:00,
2013-03-20 23:23:00,39.0,38.5,-100.00,North,-999,-999.0,-999.0,98,-99.99,,,-99.99,,2013-03-21 06:23:00,
2013-03-20 23:28:00,38.8,38.3,-100.00,North,-999,-999.0,-999.0,98,-99.99,,,-99.99,,2013-03-21 06:28:00,
2013-03-20 23:33:00,38.8,38.3,-100.00,North,-999,-999.0,-999.0,98,-99.99,,,-99.99,,2013-03-21 06:33:00,
2013-03-20 23:38:00,38.8,38.3,-100.00,North,-999,-999.0,-999.0,98,-99.99,,,-99.99,,2013-03-21 06:38:00,
2013-03-20 23:48:00,38.8,38.3,-100.00,North,-999,-999.0,-999.0,98,-99.99,,,-99.99,,2013-03-21 06:48:00,
2013-03-20 23:50:00,38.8,38.3,-100.00,North,-999,-999.0,-999.0,98,-99.99,,,-99.99,,2013-03-21 06:50:00,
2013-03-20 23:53:00,38.7,38.1,-100.00,North,-999,-999.0,-999.0,98,-99.99,,,-99.99,,2013-03-21 06:53:00,
2013-03-20 23:58:00,38.7,38.1,-100.00,North,-999,-999.0,-999.0,98,-99.99,,,-99.99,,2013-03-21 06:58:00,